Location: *
(46.3500°N, 10.9000°E)
Time: 18:10:54
(UTC+00:00)

Cosmos 1908 - Pass Details

Date: 09 April 2020
Orbit: 511 x 531 km, 82.5° (Epoch: 28 May)

Event Time Altitude Azimuth Distance (km) Brightness Sun altitude
Rises 19:03:44 0° 194° (SSW) 2,637 6.7 -11.8°
Reaches altitude 10° 19:05:52 10° 198° (SSW) 1,757 5.8 -12.1°
Maximum altitude 19:09:42 66° 280° (W) 581 3.7 -12.7°
Drops below altitude 10° 19:13:36 10° 4° (N) 1,784 6.2 -13.3°
Sets 19:15:47 0° 7° (N) 2,682 7.1 -13.7°
